Location: Mas de D�zeaumes
(43.5957°N, 4.7876°E)
Time: 01:53:12
(UTC+00:00)

Daily predictions for brighter satellites

Satellite Brightness Start Highest point End
(mag) Time Altitude Azimuth Time Altitude Azimuth Time Altitude Azimuth
Cosmos 1464 Rocket 3.9 00:08:47 78° E 00:08:47 78° E 00:14:59 10° N
Cosmos 2333 4.4 00:05:16 10° NNW 00:10:14 64° NW 00:10:14 64° NW
Lacrosse 4 Rocket 3.0 00:13:01 35° N 00:13:01 35° N 00:15:37 10° NNE
Cosmos 2219 Rocket 2.3 00:05:54 10° NNW 00:11:12 73° NNE 00:11:12 73° NNE
Cosmos 1354 Rocket 4.4 00:16:38 61° NE 00:16:38 61° NE 00:21:06 10° NNE
Cosmos 968 Rocket 4.0 00:19:13 53° NNW 00:19:13 53° NNW 00:23:32 10° NNE
Cosmos 2322 Rocket 4.2 00:15:29 10° WNW 00:17:43 17° W 00:17:43 17° W
COSMOS 2428 2.8 00:23:58 10° NNW 00:29:11 74° NW 00:29:11 74° NW
SL-16 R/B 3.6 00:28:37 28° ESE 00:31:06 38° ENE 00:36:49 10° N
Nadezhda 4 Rocket 3.9 00:28:39 10° N 00:34:59 83° E 00:35:18 79° SE
Cosmos 2360 Rocket 3.8 00:30:34 10° NW 00:33:24 22° WNW 00:33:24 22° WNW
Cosmos 2034 Rocket 3.8 00:35:41 85° S 00:35:52 88° E 00:42:12 10° N
CZ-2D R/B 3.3 00:33:00 10° NNE 00:37:53 32° E 00:38:05 32° E
Okean 2 Rocket 4.0 00:41:46 48° NNE 00:41:46 48° NNE 00:45:04 10° NNE
Meteor 2-9 Rocket 4.5 00:41:29 57° WNW 00:41:29 57° WNW 00:46:45 10° N
GEOS 3 Rocket 3.7 00:37:39 10° NE 00:42:46 79° ENE 00:42:46 79° ENE
Cosmos 2297 Rocket 3.0 00:45:36 40° ESE 00:45:36 40° ESE 00:50:40 10° NE
Cosmos 2219 3.7 00:45:50 47° E 00:45:50 47° E 00:50:57 10° NE
ADEOS II 4.3 00:43:11 10° NE 00:46:07 15° E 00:47:27 14° ESE
Cosmos 1092 Rocket 4.1 00:40:52 10° N 00:47:05 64° E 00:48:01 57° ESE
Cosmos 1777 Rocket 4.4 00:49:00 55° E 00:49:00 55° E 00:53:45 10° NNE
Cosmos 1980 4.1 00:43:10 10° NNW 00:48:46 58° ENE 00:49:51 49° ESE
Cosmos 2333 Rocket 2.9 00:43:51 10° NW 00:48:11 43° WNW 00:48:11 43° WNW
Helios 1B rocket 3.8 00:46:12 10° N 00:48:49 35° NNW 00:48:49 35° NNW
Cosmos 44 Rocket 3.7 00:51:07 10° NW 00:55:08 59° NNW 00:55:08 59° NNW
Cosmos 1300 Rocket 4.4 00:57:53 47° N 00:57:53 47° N 01:01:02 10° N
Cosmos 2237 Rocket 2.4 00:53:12 10° NNW 00:58:50 64° ENE 00:59:51 54° ESE
Okean 1 Rocket 4.3 01:01:02 35° ENE 01:01:02 35° ENE 01:04:33 10° NNE
ATLAS 3B CENTAUR R/B 4.4 01:13:44 32° SSE 01:13:44 32° SSE 01:19:12 10° ESE
Cosmos 2151 Rocket 4.1 01:12:29 55° NNW 01:12:29 55° NNW 01:16:01 10° N
Meteor 1-12 Rocket 4.3 01:11:28 67° WSW 01:11:51 69° WNW 01:17:51 10° N
Timation 2 Rocket 3.9 01:14:34 63° WSW 01:15:22 71° WNW 01:21:26 10° NNE
In-Cosmos 22 4.0 01:13:36 10° NNW 01:19:12 74° W 01:19:15 74° WSW
Meteor 1-15 Rocket 4.1 01:22:53 67° SSE 01:23:35 78° E 01:29:13 10° NNE
Cosmos 1805 4.2 01:24:26 45° NE 01:24:26 45° NE 01:27:30 10° NNE
SJ 16-02 2.6 01:25:10 32° ESE 01:25:14 32° E 01:29:11 10° NE
ERBS 4.5 01:24:49 10° NNW 01:27:39 26° NNE 01:30:28 10° E
Meteor 2-13 Rocket 4.4 01:27:24 10° NNW 01:33:25 65° W 01:34:11 59° SW
Cosmos 2227 Rocket 2.0 01:33:34 68° S 01:34:19 85° ESE 01:40:02 10° NNE
Cosmos 1538 Rocket 3.8 01:30:41 10° NNW 01:35:51 73° WSW 01:35:51 73° WSW
MOZ.5/SAFIR/RUBIN 5/SL-8 4.4 01:37:00 45° WNW 01:37:00 45° WNW 01:40:51 10° NNW
Cosmos 1025 Rocket 4.5 01:33:43 10° NNW 01:36:08 26° NW 01:36:08 26° NW
Resurs 1-4 Rocket 1.9 01:33:32 10° N 01:38:49 76° WNW 01:39:24 68° SW
Cosmos 1674 3.7 01:37:16 10° NNW 01:39:47 41° NNW 01:39:47 41° NNW
Cosmos 1733 3.7 01:42:54 57° ENE 01:42:54 57° ENE 01:46:16 10° NNE
NOSS 0 Rocket 4.4 01:39:12 10° NW 01:44:40 41° W 01:44:40 41° W
Cosmos 2279 Rocket 3.9 01:44:46 50° S 01:46:32 87° E 01:52:46 10° N
Cosmos 1461 4.1 01:47:03 33° ESE 01:47:14 33° ESE 01:51:16 10° NE
COBE Rocket 3.9 01:47:33 48° SE 01:48:43 69° ENE 01:53:20 10° N
USA 215 3.2 01:42:48 10° NE 01:49:21 76° SE 01:51:29 46° SSW
Cosmos 2026 Rocket 4.0 01:44:11 10° NNW 01:50:07 57° W 01:51:09 50° SW
Cosmos 1634 Rocket 4.2 01:50:26 46° WSW 01:51:45 55° WNW 01:57:52 10° N
Cosmos 2219 Rocket 4.2 01:51:34 10° WNW 01:52:54 13° WNW 01:52:54 13° WNW
SL-24 R/B 4.4 01:53:41 52° SSE 01:54:51 78° E 01:59:49 10° N
Cosmos 2082 3.7 01:53:29 50° S 01:54:54 72° ESE 02:00:30 10° NNE
Cosmos 2344 4.4 01:46:46 10° NW 01:56:38 73° WSW 02:10:26 10° SSE
SL-4 R/B 2.8 01:58:02 18° NW 02:00:12 40° NNE 02:03:26 10° E
Meteor 1-24 Rocket 3.5 02:01:01 10° N 02:06:32 86° E 02:08:55 35° SSE
SL-16 R/B 2.2 02:01:46 10° NNW 02:07:30 83° ENE 02:12:33 13° SSE
CBERS-1 3.9 02:02:31 10° NNE 02:07:41 89° ESE 02:09:09 48° SSW
Cosmos 1937 Rocket 4.5 02:06:56 26° SSE 02:09:23 41° ESE 02:14:22 10° NE
Meteor 2-5 Rocket 3.6 02:04:38 10° NNW 02:10:14 68° W 02:11:59 43° SSW
Cosmos 1898 Rocket 3.8 02:11:42 37° S 02:13:39 62° ESE 02:18:49 10° NNE
SL-16 R/B 3.1 02:13:42 36° WSW 02:14:40 38° W 02:20:28 10° NNW
ARIANE 5 R/B 3.2 02:10:04 10° NNE 02:15:09 50° E 02:18:02 24° SSE
NPP 4.2 02:11:52 10° N 02:16:58 44° WNW 02:18:22 36° WSW
CZ-2D R/B 3.0 02:12:56 10° N 02:17:56 37° WNW 02:19:24 32° W
IDEFIX/ARIANE 42P 3.9 02:13:14 10° NNE 02:17:58 34° E 02:21:55 14° SSE
Cosmos 1680 Rocket 3.4 02:13:56 10° NNW 02:19:12 90° E 02:22:58 19° SSE
NOSS 3-1 (C) 3.5 02:17:24 35° S 02:19:33 58° ESE 02:25:34 10° NE
USA 267 3.8 02:14:32 10° ESE 02:20:57 61° NNE 02:27:23 10° NW
Cosmos 1544 Rocket 4.1 02:20:01 30° SSE 02:21:58 57° E 02:26:21 10° NNE
AQUA 4.4 02:19:00 10° N 02:23:28 41° WNW 02:24:27 36° W
Cosmos 990 Rocket 3.9 02:23:20 39° SSW 02:25:19 85° ESE 02:30:32 10° NNE
Cosmos 1607 3.9 02:19:43 10° NW 02:26:12 80° WSW 02:32:38 10° SSE
ADEOS II 2.0 02:21:06 10° N 02:26:21 72° WNW 02:28:23 38° SSW
Cosmos 1766 4.3 02:26:32 31° WNW 02:26:32 31° WNW 02:29:57 10° NNW
Cosmos 2263 Rocket 3.5 02:23:53 15° SSE 02:27:48 33° ESE 02:32:42 10° NE
Meteor 1-22 Rocket 4.1 02:27:12 39° SW 02:28:58 60° WNW 02:34:13 10° N
Cosmos 2297 Rocket 3.3 02:27:24 25° W 02:29:32 33° NW 02:34:37 10° N
Cosmos 2219 4.5 02:27:45 22° W 02:29:56 28° NW 02:34:46 10° N
IRS-1D 3.7 02:25:13 10° N 02:30:09 56° WNW 02:31:54 37° SW
Okean 1-7 Rocket 3.4 02:28:40 10° N 02:33:05 79° W 02:35:04 33° S
IRS-1C 4.1 02:30:36 10° NNE 02:35:58 83° WNW 02:38:42 30° SSW
TIMED 4.4 02:33:16 10° NNW 02:37:36 64° WSW 02:39:36 30° S
Meteor 1-28 Rocket 3.1 02:36:22 31° SSE 02:38:05 90° ENE 02:41:55 10° NNW
Cosmos 1626 2.8 02:35:40 10° NNW 02:38:56 36° W 02:38:56 36° W
Cosmos 2266 Rocket 4.0 02:33:46 10° NNW 02:40:08 74° W 02:45:02 17° S
Cosmos 1655 Rocket 4.1 02:34:51 10° NNW 02:40:56 55° W 02:44:28 25° SSW
Cosmos 2237 Rocket 3.7 02:38:29 10° WNW 02:41:36 19° W 02:41:36 19° W
Cosmos 1470 2.7 02:41:43 42° SSW 02:42:53 69° W 02:46:52 10° N
CZ-4B R/B 4.2 02:39:00 10° N 02:43:19 35° WNW 02:44:50 28° WSW
SL-08 R/B 3.3 02:43:56 20° S 02:47:22 68° WSW 02:52:20 10° NNW
USA 229 DEB 3.6 02:48:34 25° SSW 02:52:38 84° SE 02:59:30 10° NE
USA 229 3.6 02:48:39 25° SSW 02:52:43 84° SE 02:59:34 10° NE
Cosmos 2098 Rocket 3.8 02:50:21 10° NNW 02:55:06 53° W 02:59:34 17° SSW
NOSS 3 (A) 4.2 02:55:49 59° SW 02:56:15 85° NW 02:59:06 10° NE
Cosmos 158 Rocket 4.4 02:51:54 10° NNW 02:56:58 43° WSW 03:00:33 18° SSW
NOSS 2-3 (C) 3.8 03:01:07 24° SSW 03:03:38 67° ESE 03:08:27 10° NE
NOSS 3-1 (A) 3.4 03:00:07 21° SSW 03:03:48 73° ESE 03:10:02 10° NE
SJ 16-02 2.7 03:02:10 20° W 03:03:50 25° WNW 03:07:32 10° N
ERBS 2.7 03:00:56 10° WNW 03:03:59 35° SW 03:07:00 10° SSE
Meteor 2-14 Rocket 4.4 02:58:52 10° N 03:04:58 89° E 03:11:02 10° S
CSL-04 DEB 4.3 03:05:01 10° SSE 03:08:56 89° ENE 03:12:52 10° NNW
Cosmos 1455 Rocket 4.1 03:11:32 21° WSW 03:13:21 29° WNW 03:17:13 10° NNW
MSX 4.0 03:08:20 10° NNE 03:14:07 77° ESE 03:19:53 10° S
Cosmos 1809 Rocket 4.5 03:08:10 10° NNW 03:14:11 63° W 03:20:12 10° S
Cosmos 1943 3.6 03:08:40 10° NNW 03:14:16 66° ENE 03:19:51 10° SE
Cosmos 1758 4.1 03:13:24 23° SW 03:15:16 35° WNW 03:19:00 10° N
Cosmos 1626 Rocket 3.5 03:11:08 10° NNW 03:15:25 60° W 03:19:39 10° S
Resurs 1-4 Rocket 4.2 03:16:03 10° NW 03:17:44 12° NW 03:19:25 10° WNW
Spot 4 Rocket 4.1 03:13:34 10° N 03:18:41 64° WNW 03:23:00 14° SSW
Cosmos 2227 Rocket 4.0 03:15:24 10° W 03:19:08 18° NW 03:22:58 10° N
Meteor 1-21 Rocket 4.1 03:13:41 10° NNW 03:19:15 77° W 03:24:46 10° S
SeaSat 1 2.7 03:17:54 10° NNE 03:22:51 71° ESE 03:27:42 10° SSW
Landsat 5 3.2 03:19:47 10° SSE 03:23:39 85° WSW 03:27:41 10° NNW
Cosmos 1461 4.2 03:23:26 16° W 03:26:21 31° NW 03:30:26 10° NNE
CZ-2C R/B 2.7 03:22:55 10° N 03:26:49 69° WNW 03:30:09 13° SSW
CZ-2D R/B 4.0 03:24:31 10° N 03:28:21 40° WNW 03:31:10 16° SW
Cosmos 2227 4.3 03:24:45 14° SSW 03:29:43 73° WNW 03:35:31 10° NNE
FALCON 9 DEB 3.1 03:27:31 10° NW 03:31:00 87° SW 03:34:28 10° SE
ATLAS CENTAUR R/B 3.3 03:28:09 10° S 03:31:35 24° ESE 03:34:52 10° ENE
Cosmos 1340 Rocket 4.2 03:29:56 16° WSW 03:31:57 23° WNW 03:35:10 10° NNW
USA 215 4.1 03:26:01 10° NE 03:32:06 43° NNW 03:38:10 10° W
ATLAS 3B CENTAUR R/B 4.0 03:27:05 13° WSW 03:33:03 22° SSW 03:37:34 10° SSE
Cosmos 1758 Rocket 3.7 03:29:04 10° N 03:33:24 77° E 03:37:42 10° SSE
ERS-2 2.0 03:31:19 10° S 03:34:56 69° WSW 03:38:35 10° NNW
Cosmos 2228 3.7 03:31:51 10° S 03:36:06 59° E 03:40:26 10° NNE
Cosmos 724 4.3 03:31:08 10° NW 03:37:06 66° WSW 03:43:10 10° SSE
Cosmos 1953 2.9 03:35:03 14° SW 03:38:11 39° WNW 03:41:59 10° N
SL-4 R/B 2.2 03:36:36 10° WNW 03:39:42 33° SW 03:42:49 10° SSE
Cosmos 1726 3.1 03:38:38 14° SW 03:41:09 29° WNW 03:44:25 10° NNW
Cosmos 1908 3.2 03:39:23 10° SSW 03:43:16 74° W 03:47:12 10° N
Meteor 1-16 Rocket 4.2 03:39:05 10° SSW 03:44:22 66° WNW 03:49:51 10° N
Cosmos 2285 Rocket 4.1 03:39:51 10° SSW 03:46:11 89° ESE 03:52:31 10° NNE
H-2A R/B 2.4 03:45:30 10° S 03:49:22 39° W 03:53:14 10° NNW
SL-16 R/B 3.8 03:47:54 10° WNW 03:50:49 14° W 03:53:43 10° SW
Cosmos 2150 Rocket 4.0 03:45:53 10° SSW 03:51:01 81° WNW 03:56:16 10° NNE
ARIANE 5 R/B 3.9 03:49:51 10° NNW 03:53:55 23° WNW 03:57:58 10° WSW
Cosmos 1825 Rocket 3.5 03:51:38 10° NNW 03:56:00 77° W 04:00:17 10° S
IDEFIX/ARIANE 42P 3.5 03:52:55 10° N 03:57:28 32° WNW 04:02:01 10° SW
CZ-4C R/B 4.0 03:56:12 10° SSW 03:58:49 23° W 04:01:31 10° NW
Cosmos 1328 3.9 03:56:27 10° NNW 04:00:22 56° W 04:04:16 10° S
ADEOS 4.0 03:55:31 10° NNE 04:00:43 66° ESE 04:05:54 10° S
CZ-4B R/B 1.4 03:58:29 10° SSE 04:01:47 82° ENE 04:05:02 10° N
Cosmos 1953 Rocket 3.8 03:57:32 10° N 04:02:03 82° E 04:06:32 10° S
NOSS 2-3 (E) 4.5 03:58:12 10° WSW 04:02:16 40° NW 04:07:02 10° NNE
USA 267 3.5 03:57:53 10° SSE 04:04:04 45° SW 04:10:19 10° WNW
ADEOS II 4.2 04:03:49 10° NW 04:05:06 11° NW 04:06:23 10° WNW
Cosmos 2263 Rocket 2.9 04:06:25 10° SW 04:11:36 38° WNW 04:16:48 10° NNE
